Regional Weather Roundup
Issued by NWS

Home | Current Version | Previous Version | Graphics & Text | Print | Product List | Glossary On
Versions: 1 2 3 4 5 6 7 8 9 10 11 12 13 14 15 16 17 18 19 20 21 22 23 24 25 26 27 28 29 30 31 32 33 34 35 36 37 38 39 40 41 42 43 44 45 46 47 48 49 50
000
ASUS45 KCYS 031010
RWRWY

WYOMING REGIONAL WEATHER ROUNDUP
NATIONAL WEATHER SERVICE CHEYENNE WY
400 AM MDT SUN MAY 03 2015

NOTE:  "FAIR" INDICATES FEW OR NO CLOUDS BELOW 12,000 FEET
WITH NO SIGNIFICANT WEATHER AND/OR OBSTRUCTIONS TO VISIBILITY.

WYZ001-031100-
YELLOWSTONE NATIONAL PARK

CITY           SKY/WX    TMP DP  RH WIND       PRES   REMARKS
LK YELLOWSTONE   N/A     30  24  78 CALM      30.02R
W YELLOWSTONE  NOT AVBL

$$
WYZ002>013-054>058-071-098>099-031100-
NORTHERN WYOMING

CITY           SKY/WX    TMP DP  RH WIND       PRES   REMARKS
JACKSON        FAIR      43  32  65 SW3       29.96R
CODY           FAIR      46  36  66 N9G18     29.94R
GREYBULL       FAIR      56  34  43 NW13      29.84R
WORLAND        FAIR      53  29  39 CALM      29.87R
SHERIDAN       CLOUDY    51  37  58 NW18      29.94R
BUFFALO        CLOUDY    53  33  46 N15G26    29.94R
GILLETTE       FAIR      47  32  56 N10       29.90R
HULETT         CLOUDY    54  32  43 NE7       29.93R
NEWCASTLE      FAIR      50  32  50 N14       29.84R

$$
WYZ014>020-022>026-101>103-031100-
CENTRAL WYOMING

CITY           SKY/WX    TMP DP  RH WIND       PRES   REMARKS
BIG PINEY      FAIR      38  30  73 E5        30.01S WCI  34
PINEDALE       PTSUNNY   34  32  93 CALM      30.02F
DUBOIS         FAIR      39  28  65 NW5       29.97S
LANDER         FAIR      57  31  37 SW7       29.90R
RIVERTON       FAIR      58  27  30 VRB5      29.91S
CASPER         FAIR      43  32  65 W6        29.92R
DOUGLAS        FAIR      51  38  60 NW13      29.87R

$$
WYZ021-027>030-104>119-031100-
SOUTHERN WYOMING

CITY           SKY/WX    TMP DP  RH WIND       PRES   REMARKS
EVANSTON       CLOUDY    48  32  53 E5        30.02F
KEMMERER       FAIR      48  32  53 S3        30.03S
FORT BRIDGER   CLOUDY    52  32  46 CALM      30.05F
ROCK SPRINGS   CLOUDY    46  37  71 SE3       30.01F
DIXON          FAIR      43  35  75 E13       30.04S
RAWLINS        CLOUDY    49  33  54 CALM      29.99F
SARATOGA       CLOUDY    45  36  70 MISG      30.02F
LARAMIE        FAIR      43  32  65 SW16      29.98F
CHEYENNE       FAIR      55  33  43 W12G17    29.92S
TORRINGTON     FAIR      51  40  65 CALM      29.81S
PINE BLUFFS    FAIR      43  39  87 CALM      29.91S

$$



USA.gov is the U.S. government's official web portal to all federal, state and local government web resources and services.